Visibility
15.0 15.0 15.0 15.0 15.0 15.0 15.0 15.0 15.0 15.0 15.0 15.0 15.0 15.0 15.0 15.0 15.0 15.0 15.0 15.0 15.0 15.0
15.0 15.0 15.0 15.0 15.0 15.0 15.0 15.0 15.0 15.0 15.0 15.0 15.0 15.0 15.0 15.0 15.0 15.0 15.0 15.0 15.0 15.0
15.0 15.0 15.0 15.0 15.0 15.0 15.0 15.0 15.0 15.0 15.0 15.0 15.0 15.0 15.0 15.0 15.0 15.0 15.0 15.0 15.0 15.0
15.0 15.0 15.0 15.0 15.0 15.0 15.0 15.0 15.0 15.0 15.0 15.0 15.0 15.0 15.0 15.0 15.0 15.0 15.0 15.0 15.0 15.0
15.0 15.0 15.0 15.0 15.0 15.0 15.0 15.0 15.0 15.0 15.0 15.0 15.0 15.0 15.0 15.0 15.0 10.3 15.0 15.0 15.0 15.0
15.0 15.0 15.0 15.0 15.0 15.0 15.0 15.0 15.0 15.0 15.0 15.0 15.0 7.2 15.0 15.0 3.1 15.0 11.7 12.7 15.0 15.0
15.0 15.0 15.0 15.0 15.0 15.0 15.0 15.0 15.0 15.0 15.0 15.0 13.2 11.4 11.5 13.6 15.0 8.8 15.0 15.0 15.0 15.0
15.0 15.0 15.0 15.0 15.0 15.0 15.0 15.0 15.0 15.0 15.0 15.0 15.0 12.6 13.1 4.8 15.0 15.0 7.8 15.0 15.0 15.0
15.0 15.0 15.0 15.0 15.0 15.0 15.0 15.0 15.0 15.0 15.0 15.0 15.0 11.2 8.7 4.3 15.0 15.0 15.0 15.0 8.7 15.0
15.0 15.0 12.5 15.0 12.3 9.9 7.3 15.0 15.0 15.0 15.0 14.6 15.0 9.1 5.4 6.4 5.3 15.0 15.0 15.0 14.9 15.0
15.0 13.0 0.0 0.2 0.1 0.1 4.6 1.5 11.3 15.0 14.9 14.6 10.3 4.7 7.6 10.3 15.0 15.0 13.5 15.0 15.0 15.0
15.0 15.0 0.0 0.0 0.0 0.0 0.0 0.0 0.0 5.1 9.2 1.6 6.5 5.3 6.4 15.0 6.8 0.0 0.0 3.0 15.0 15.0
15.0 15.0 9.7 0.0 0.0 0.0 0.0 0.0 0.0 0.0 0.0 0.1 0.1 5.5 5.7 5.6 5.6 3.0 1.7 15.0 15.0 15.0
15.0 15.0 15.0 0.0 0.0 0.0 0.0 0.1 0.0 0.0 0.1 0.9 7.2 6.4 15.0 8.1 15.0 15.0 15.0 15.0 15.0 15.0